Regional Weather Roundup
Issued by NWS

Home | Current Version | Previous Version | Text Only | Print | Product List | Glossary Off
Versions: 1 2 3 4 5 6 7 8 9 10 11 12 13 14 15 16 17 18 19 20 21 22 23 24 25 26 27 28 29 30 31 32 33 34 35 36 37 38 39 40 41 42 43 44 45 46 47 48 49 50

000
ASUS43 KIND 300909
RWRIN

WEATHER ROUNDUP FOR INDIANA
NATIONAL WEATHER SERVICE INDIANAPOLIS IN
500 AM EDT THU JUL 30 2015

NOTE: "FAIR" INDICATES FEW OR NO CLOUDS BELOW 12,000 FEET WITH NO
SIGNIFICANT WEATHER AND/OR OBSTRUCTIONS TO VISIBILITY.

* - STATION DOES NOT REPORT WEATHER SUCH AS PRECIPITATION OR FOG.

+ - STATION NOT QUALITY CONTROLLED BY THE NATIONAL WEATHER SERVICE.
    USE DATA WITH CAUTION...ESPECIALLY DEWPOINT AND RELATIVE
    HUMIDITY OBSERVATIONS.

INZ001>003-010>013-019-020-301000-
NORTHWEST INDIANA

CITY           SKY/WX    TMP DP  RH WIND       PRES   REMARKS
GARY /AIRPORT/ CLEAR     69  59  70 W6        30.03S
KNOX *+        CLEAR     63  57  82 W7        30.01S
LA PORTE +     CLEAR     65  58  76 W6        30.02S
MICHIGAN CITY+ CLEAR     61  59  94 S5        30.02R
MONTICELLO +   CLEAR     63  61  93 CALM      30.03S
RENSSELAER +   CLEAR     64  61  88 W5        30.04S
VALPARAISO     CLEAR     63  57  81 W7        30.03R

$$

LMZ046-743>745-301000-
SOUTHERN LAKE MICHIGAN

STATION/POSITION TIME  TEMP    WIND        PRES    WAVE
                       AIR SEA DIR/SP/G            HT
                 (UTC) (F)     (DEG/KT/KT) (MB)    (FT)
BURNS HARBOR     0800   72     250/  9/ 14 1016.9R
MICHIGAN CITY    0800   73     240/ 14/ 15   N/A
5NW MICH CITY    0900   74 73  280/ 12/ 17   N/A     3

$$

INZ004-005-014>016-021>024-301000-
NORTH CENTRAL INDIANA

CITY           SKY/WX    TMP DP  RH WIND       PRES   REMARKS
GOSHEN         CLEAR     62  57  83 W5        30.00R
LOGANSPORT +   CLEAR     59  54  82 W5        30.04S
PERU/GRISSOM   CLEAR     61  58  89 W7        30.03R
ROCHESTER +    CLEAR     64  61  88 W7        30.03R
SOUTH BEND     CLEAR     63  58  83 W3        30.01S
WARSAW +       CLEAR     61  57  88 W3        30.01S

$$

INZ006>009-017-018-025>027-301000-
NORTHEAST INDIANA

CITY           SKY/WX    TMP DP  RH WIND       PRES   REMARKS
ANGOLA *+      CLEAR     64  57  77 VRB3      29.99S
AUBURN +       CLEAR     63  57  82 CALM      30.00S
FORT WAYNE     PTCLDY    63  59  87 W9        30.01S
HUNTINGTON +   CLEAR     64  58  80 W7        30.01R

$$

INZ028-029-035-036-043>045-051>053-301000-
WEST CENTRAL INDIANA

CITY           SKY/WX    TMP DP  RH WIND       PRES   REMARKS
CRAWFORDSVL +  CLEAR     60  59  97 CALM        N/A
GREENCASTLE +  CLEAR     64  55  72 NW5       30.07S
LAFAYETTE      CLEAR     61  60  97 W3        30.05R
TERRE HAUTE    CLEAR     64  59  83 CALM      30.07R

$$

INZ030>032-037>040-046>048-054>057-064-065-301000-
CENTRAL INDIANA

CITY           SKY/WX    TMP DP  RH WIND       PRES   REMARKS
FRANKFORT +    CLEAR    N/A N/A N/A CALM      30.07S
INDIANAPOLIS   PTCLDY    67  58  72 NW6       30.04R
-EAGLE CREEK   CLEAR     68  60  75 NW8       30.04S
KOKOMO *+      CLEAR     63  57  82 W8        30.04R
MARION +       CLEAR     60  58  92 NW3       30.04R
MT COMFORT *+  CLEAR     66  59  77 NW6       30.05S
SHELBYVILLE    CLEAR     66  60  81 NW5       30.04R
ZIONSVILLE +   CLEAR     65  58  80 NW3       30.06S

$$

INZ033-034-041-042-049-050-058-059-301000-
EAST CENTRAL INDIANA

CITY           SKY/WX    TMP DP  RH WIND       PRES   REMARKS
MUNCIE         CLEAR     64  59  83 W7        30.03R

$$

INZ060-061-067>069-081>083-085>088-301000-
SOUTHWEST INDIANA

CITY           SKY/WX    TMP DP  RH WIND       PRES   REMARKS
EVANSVILLE     PTCLDY    72  63  73 CALM      30.08R
HUNTINGBURG *+ PTCLDY    68  63  83 NW3       30.07R
WASHINGTON +   PTCLDY    65  61  86 CALM      30.07R

$$

INZ062-063-066-070>080-084-089>092-301000-
SOUTH CENTRAL AND SOUTHEAST INDIANA

CITY           SKY/WX    TMP DP  RH WIND       PRES   REMARKS
BLOOMINGTON    CLEAR     66  61  84 CALM      30.06S
MADISON *+     MOCLDY    68  63  83 NW3       30.06R

$$




USA.gov is the U.S. government's official web portal to all federal, state and local government web resources and services.